Location: Nied?wied?
(53.3665°N, 14.8184°E)
Time: 00:58:48
(UTC+00:00)

Cosmos 2278 Rocket - Pass Details

Date: 03 March 2021
Orbit: 841 x 845 km, 71.0° (Epoch: 11 April)

Event Time Altitude Azimuth Distance (km) Brightness Sun altitude
Rises 18:38:56 0° 328° (NNW) 3,418 6.1 -18.0°
Reaches altitude 10° 18:41:28 10° 333° (NNW) 2,479 5.2 -18.4°
Maximum altitude 18:47:01 51° 50° (NE) 1,054 2.4 -19.2°
Enters shadow 18:48:56 36° 102° (ESE) 1,310 2.6 -19.5°
